TimeCDT,TemperatureF,Dew PointF,Humidity,Sea Level PressureIn,VisibilityMPH,Wind Direction,Wind SpeedMPH,Gust SpeedMPH,PrecipitationIn,Events,Conditions,WindDirDegrees,DateUTC
12:53 AM,77.0,72.0,84,29.95,10.0,SSE,6.9,-,N/A,,Mostly Cloudy,160,2013-05-21 05:53:00
1:16 AM,78.8,73.4,83,29.94,10.0,South,6.9,-,N/A,,Overcast,170,2013-05-21 06:16:00
1:44 AM,77.0,73.4,89,29.93,10.0,South,5.8,-,N/A,,Overcast,170,2013-05-21 06:44:00
1:53 AM,77.0,73.0,88,29.95,10.0,South,8.1,-,N/A,,Overcast,170,2013-05-21 06:53:00
2:53 AM,75.0,72.0,90,29.93,9.0,SSE,5.8,-,N/A,,Clear,160,2013-05-21 07:53:00
3:53 AM,73.0,72.0,96,29.93,8.0,SSE,4.6,-,N/A,,Clear,160,2013-05-21 08:53:00
4:13 AM,73.4,71.6,94,29.92,7.0,South,3.5,-,N/A,,Mostly Cloudy,180,2013-05-21 09:13:00
4:40 AM,73.4,71.6,94,29.92,9.0,SSE,6.9,-,N/A,,Scattered Clouds,150,2013-05-21 09:40:00
4:53 AM,73.9,72.0,93,29.94,9.0,SSE,4.6,-,N/A,,Partly Cloudy,160,2013-05-21 09:53:00
5:40 AM,73.4,71.6,94,29.93,8.0,South,3.5,-,N/A,,Mostly Cloudy,170,2013-05-21 10:40:00
5:53 AM,73.0,72.0,96,29.95,8.0,SSE,5.8,-,N/A,,Mostly Cloudy,160,2013-05-21 10:53:00
6:05 AM,73.4,71.6,94,29.93,7.0,SSE,5.8,-,N/A,,Scattered Clouds,150,2013-05-21 11:05:00
6:53 AM,73.9,72.0,93,29.95,7.0,SSE,5.8,-,N/A,,Clear,150,2013-05-21 11:53:00
7:53 AM,77.0,73.0,88,29.95,10.0,SSE,5.8,-,N/A,,Clear,160,2013-05-21 12:53:00
8:53 AM,80.1,73.0,79,29.96,10.0,South,12.7,19.6,N/A,,Scattered Clouds,170,2013-05-21 13:53:00
9:05 AM,78.8,73.4,83,29.95,10.0,South,15.0,-,N/A,,Mostly Cloudy,170,2013-05-21 14:05:00
9:53 AM,81.0,72.0,74,29.95,10.0,South,10.4,-,N/A,,Mostly Cloudy,180,2013-05-21 14:53:00
10:53 AM,82.9,72.0,69,29.95,10.0,SSW,8.1,18.4,N/A,,Scattered Clouds,200,2013-05-21 15:53:00
11:53 AM,86.0,70.0,59,29.95,10.0,South,12.7,18.4,N/A,,Partly Cloudy,180,2013-05-21 16:53:00
12:53 PM,87.1,71.1,59,29.93,10.0,South,8.1,-,N/A,,Clear,190,2013-05-21 17:53:00
1:53 PM,88.0,70.0,55,29.91,10.0,South,15.0,21.9,N/A,,Partly Cloudy,180,2013-05-21 18:53:00
2:53 PM,88.0,70.0,55,29.88,10.0,South,13.8,20.7,N/A,,Partly Cloudy,170,2013-05-21 19:53:00
3:53 PM,88.0,70.0,55,29.85,10.0,South,15.0,-,N/A,,Mostly Cloudy,170,2013-05-21 20:53:00
4:53 PM,88.0,70.0,55,29.80,10.0,South,17.3,26.5,N/A,,Clear,180,2013-05-21 21:53:00
5:53 PM,87.1,71.1,59,29.79,10.0,South,15.0,-,N/A,,Partly Cloudy,170,2013-05-21 22:53:00
6:53 PM,84.9,71.1,63,29.80,10.0,South,13.8,20.7,N/A,,Clear,180,2013-05-21 23:53:00
7:53 PM,82.0,72.0,71,29.81,10.0,South,5.8,-,N/A,,Clear,180,2013-05-22 00:53:00
8:53 PM,79.0,72.0,79,29.83,10.0,South,3.5,-,N/A,,Clear,180,2013-05-22 01:53:00
9:53 PM,75.0,71.1,87,29.88,10.0,Calm,Calm,-,N/A,,Clear,0,2013-05-22 02:53:00
10:46 PM,68.0,62.6,83,29.94,5.0,NW,23.0,46.0,0.00,Rain-Thunderstorm,Rain,320,2013-05-22 03:46:00
10:53 PM,66.0,63.0,90,29.98,4.0,NNW,20.7,46.0,0.02,Rain-Thunderstorm,Light Rain,340,2013-05-22 03:53:00
11:00 PM,64.4,62.6,94,29.95,2.5,NNW,17.3,32.2,0.06,Rain-Thunderstorm,Heavy Thunderstorms and Rain,340,2013-05-22 04:00:00
11:26 PM,64.4,62.6,94,29.96,4.0,North,15.0,28.8,0.30,Rain-Thunderstorm,Heavy Rain,10,2013-05-22 04:26:00
11:53 PM,64.9,63.0,93,29.97,9.0,NNE,16.1,23.0,0.36,Rain,Light Rain,20,2013-05-22 04:53:00